Location: Cudham
(51.3000°N, 0.0667°E)
Time: 18:31:50
(UTC+00:00)

SPOT 3 Rocket - Pass Details

Date: 19 May 2025
Orbit: 775 x 790 km, 98.5° (Epoch: 23 June)

Event Time Altitude Azimuth Distance (km) Brightness Sun altitude
Exits shadow 21:43:39 13° 182° (S) 2,131 5.3 -13.0°
Maximum altitude 21:48:10 56° 259° (W) 923 4.0 -13.4°
Drops below altitude 10° 21:53:15 10° 338° (NNW) 2,337 7.4 -13.8°
Sets 21:55:37 0° 343° (NNW) 3,269 8.5 -14.0°
